UAL360 KLAX-KDEN

Flight info

Callsign UAL360
Flight time 1h 47m
Altitude 39000
Route ORCKA5 LAS J146 DICEE BUMMP SSKII4
Aircraft B77W/H-SDE1E2E3FGHIJ2J3J4J5M1RWXY/LB1D1

Departure

Time 2026-04-20 00:56
Airport Los Angeles International Airport (KLAX)

Arrival

Time 2026-04-20 02:43
Airport Denver International Airport (KDEN)
Time Latitude Longitude Altitude Speed Heading
2026-04-20 00:11 33.94105 -118.39902 121 ft 0 kts 306°
2026-04-20 00:44 33.94104 -118.39900 122 ft 2 kts 306°
2026-04-20 00:45 33.94094 -118.39885 122 ft 2 kts 306°
2026-04-20 00:45 33.94086 -118.39871 121 ft 2 kts 306°
2026-04-20 00:45 33.94077 -118.39856 121 ft 2 kts 306°
2026-04-20 00:45 33.94068 -118.39842 121 ft 2 kts 318°
2026-04-20 00:46 33.94056 -118.39832 121 ft 2 kts 335°
2026-04-20 00:46 33.94042 -118.39826 121 ft 2 kts 351°
2026-04-20 00:46 33.94027 -118.39825 120 ft 2 kts
2026-04-20 00:46 33.94012 -118.39829 120 ft 2 kts 21°
2026-04-20 00:47 33.94003 -118.39833 121 ft 2 kts 31°
2026-04-20 00:47 33.93996 -118.39839 121 ft 2 kts 39°
2026-04-20 00:47 33.93986 -118.39851 121 ft 2 kts 54°
2026-04-20 00:47 33.93978 -118.39867 121 ft 2 kts 69°
2026-04-20 00:48 33.93975 -118.39882 122 ft 0 kts 83°
2026-04-20 00:48 33.93974 -118.39886 122 ft 0 kts 84°
2026-04-20 00:50 33.93974 -118.39884 121 ft 1 kts 84°
2026-04-20 00:50 33.93979 -118.39835 121 ft 10 kts 84°
2026-04-20 00:50 33.93990 -118.39720 118 ft 15 kts 83°
2026-04-20 00:51 33.94002 -118.39596 117 ft 12 kts 86°
2026-04-20 00:51 33.93964 -118.39530 117 ft 9 kts 162°
2026-04-20 00:51 33.93936 -118.39454 116 ft 13 kts 85°
2026-04-20 00:51 33.93950 -118.39314 114 ft 19 kts 84°
2026-04-20 00:52 33.93967 -118.39140 114 ft 22 kts 83°
2026-04-20 00:52 33.93987 -118.38938 111 ft 24 kts 83°
2026-04-20 00:52 33.94007 -118.38739 111 ft 23 kts 83°
2026-04-20 00:52 33.94027 -118.38551 111 ft 22 kts 83°
2026-04-20 00:53 33.94046 -118.38367 108 ft 22 kts 83°
2026-04-20 00:53 33.94065 -118.38187 108 ft 21 kts 83°
2026-04-20 00:53 33.94077 -118.38071 108 ft 7 kts 84°
2026-04-20 00:53 33.94076 -118.38030 108 ft 0 kts 114°
2026-04-20 00:54 33.94075 -118.38029 108 ft 1 kts 120°
2026-04-20 00:54 33.94055 -118.38013 108 ft 5 kts 158°
2026-04-20 00:55 33.94009 -118.38005 108 ft 6 kts 199°
2026-04-20 00:55 33.93986 -118.38046 108 ft 6 kts 257°
2026-04-20 00:55 33.93973 -118.38155 108 ft 35 kts 262°
2026-04-20 00:55 33.93904 -118.38809 111 ft 123 kts 263°
2026-04-20 00:56 33.93777 -118.40134 304 ft 183 kts 263°
2026-04-20 00:56 33.93641 -118.41618 1368 ft 184 kts 262°
2026-04-20 00:56 33.93491 -118.43147 2464 ft 192 kts 262°
2026-04-20 00:56 33.93331 -118.44737 3544 ft 197 kts 261°
2026-04-20 00:57 33.93081 -118.46448 3963 ft 228 kts 257°
2026-04-20 00:57 33.92610 -118.48384 4597 ft 249 kts 249°
2026-04-20 00:57 33.91964 -118.50426 4948 ft 269 kts 246°
2026-04-20 00:57 33.91244 -118.52527 4974 ft 274 kts 246°
2026-04-20 00:58 33.90485 -118.54638 4969 ft 275 kts 240°
2026-04-20 00:58 33.89123 -118.56355 5541 ft 291 kts 207°
2026-04-20 00:58 33.87235 -118.56973 6990 ft 278 kts 179°
2026-04-20 00:58 33.85397 -118.56534 8284 ft 272 kts 155°
2026-04-20 00:59 33.83896 -118.55206 9336 ft 276 kts 131°
2026-04-20 00:59 33.82988 -118.53133 10286 ft 286 kts 107°
2026-04-20 00:59 33.82929 -118.50681 10940 ft 310 kts 79°
2026-04-20 00:59 33.83910 -118.48312 11525 ft 335 kts 51°
2026-04-20 01:00 33.85852 -118.46593 12160 ft 357 kts 26°
2026-04-20 01:00 33.88288 -118.45586 12847 ft 375 kts 18°
2026-04-20 01:00 33.90707 -118.44368 13548 ft 389 kts 30°
2026-04-20 01:00 33.92988 -118.42508 14261 ft 402 kts 41°
2026-04-20 01:01 33.94975 -118.40090 15145 ft 410 kts 53°
2026-04-20 01:01 33.96641 -118.37331 16204 ft 413 kts 57°
2026-04-20 01:01 33.98280 -118.34461 17228 ft 418 kts 57°
2026-04-20 01:01 33.99918 -118.31577 18094 ft 426 kts 57°
2026-04-20 01:02 34.00557 -118.30450 18436 ft 429 kts 57°
2026-04-20 01:02 34.01270 -118.29193 18839 ft 431 kts 57°
2026-04-20 01:02 34.02962 -118.26212 19781 ft 437 kts 57°
2026-04-20 01:03 34.04682 -118.23180 20673 ft 443 kts 57°
2026-04-20 01:03 34.06435 -118.20088 21550 ft 449 kts 56°
2026-04-20 01:03 34.08194 -118.16981 22431 ft 455 kts 56°
2026-04-20 01:03 34.10003 -118.13783 23240 ft 461 kts 56°
2026-04-20 01:04 34.11817 -118.10573 24050 ft 467 kts 56°
2026-04-20 01:04 34.13660 -118.07307 24886 ft 472 kts 56°
2026-04-20 01:04 34.15512 -118.04022 25665 ft 477 kts 56°
2026-04-20 01:04 34.17379 -118.00708 26418 ft 483 kts 55°
2026-04-20 01:05 34.19291 -117.97310 27171 ft 488 kts 55°
2026-04-20 01:05 34.21203 -117.93908 27958 ft 492 kts 55°
2026-04-20 01:05 34.23131 -117.90475 28703 ft 497 kts 55°
2026-04-20 01:05 34.25077 -117.87007 29412 ft 501 kts 55°
2026-04-20 01:06 34.27019 -117.83542 30265 ft 501 kts 54°
2026-04-20 01:06 34.28983 -117.80032 31190 ft 498 kts 54°
2026-04-20 01:06 34.30915 -117.76578 32110 ft 494 kts 54°
2026-04-20 01:06 34.32830 -117.73151 32914 ft 491 kts 54°
2026-04-20 01:07 34.34721 -117.69763 33614 ft 490 kts 53°
2026-04-20 01:07 34.36671 -117.66373 34164 ft 490 kts 51°
2026-04-20 01:07 34.38693 -117.63007 34670 ft 490 kts 51°
2026-04-20 01:07 34.40723 -117.59631 35104 ft 492 kts 52°
2026-04-20 01:08 34.42734 -117.56279 35509 ft 494 kts 52°
2026-04-20 01:08 34.44769 -117.52877 35941 ft 496 kts 52°
2026-04-20 01:08 34.46798 -117.49480 36454 ft 496 kts 52°
2026-04-20 01:08 34.48816 -117.46094 36835 ft 499 kts 52°
2026-04-20 01:09 34.50872 -117.42638 37209 ft 500 kts 52°
2026-04-20 01:09 34.52887 -117.39249 37541 ft 502 kts 52°
2026-04-20 01:09 34.54927 -117.35812 37873 ft 503 kts 52°
2026-04-20 01:09 34.56983 -117.32346 38182 ft 505 kts 53°
2026-04-20 01:10 34.59042 -117.28869 38425 ft 508 kts 53°
2026-04-20 01:10 34.63161 -117.21905 38964 ft 510 kts 53°
2026-04-20 01:10 34.65236 -117.18391 38978 ft 512 kts 53°
2026-04-20 01:11 34.69371 -117.11375 39007 ft 508 kts 53°
2026-04-20 01:11 34.73523 -117.04317 38974 ft 507 kts 53°
2026-04-20 01:12 34.77608 -116.97361 38984 ft 509 kts 53°
2026-04-20 01:12 34.81732 -116.90323 38992 ft 507 kts 53°
2026-04-20 01:13 34.85837 -116.83305 38986 ft 509 kts 53°
2026-04-20 01:13 34.89940 -116.76273 38973 ft 509 kts 53°
2026-04-20 01:14 34.94259 -116.69737 38941 ft 508 kts 45°
2026-04-20 01:14 34.99032 -116.63472 38922 ft 508 kts 45°
2026-04-20 01:15 35.03789 -116.57219 38941 ft 509 kts 45°
2026-04-20 01:15 35.08605 -116.50869 38921 ft 508 kts 45°
2026-04-20 01:16 35.13337 -116.44613 38937 ft 508 kts 45°
2026-04-20 01:16 35.18073 -116.38340 38916 ft 506 kts 46°
2026-04-20 01:17 35.22792 -116.32075 38950 ft 507 kts 46°
2026-04-20 01:17 35.27539 -116.25762 38945 ft 506 kts 46°
2026-04-20 01:18 35.32220 -116.19524 38947 ft 507 kts 46°
2026-04-20 01:18 35.37012 -116.13127 38933 ft 507 kts 46°
2026-04-20 01:19 35.41813 -116.06704 38950 ft 508 kts 46°
2026-04-20 01:19 35.46588 -116.00305 38959 ft 509 kts 46°
2026-04-20 01:20 35.51373 -115.93879 38954 ft 507 kts 46°
2026-04-20 01:20 35.56159 -115.87441 38975 ft 509 kts 46°
2026-04-20 01:21 35.60915 -115.81031 38980 ft 508 kts 46°
2026-04-20 01:21 35.65670 -115.74577 39001 ft 508 kts 47°
2026-04-20 01:22 35.70396 -115.68076 39006 ft 508 kts 47°
2026-04-20 01:22 35.75127 -115.61556 39021 ft 508 kts 47°
2026-04-20 01:23 35.79816 -115.55085 39041 ft 507 kts 47°
2026-04-20 01:23 35.84502 -115.48606 39070 ft 508 kts 47°
2026-04-20 01:24 35.89210 -115.42087 39046 ft 508 kts 47°
2026-04-20 01:24 35.93929 -115.35538 39023 ft 508 kts 47°
2026-04-20 01:25 35.98638 -115.28991 38977 ft 506 kts 47°
2026-04-20 01:25 36.03348 -115.22431 38954 ft 509 kts 48°
2026-04-20 01:26 36.07674 -115.15583 38938 ft 507 kts 60°
2026-04-20 01:26 36.10549 -115.07588 38932 ft 509 kts 70°
2026-04-20 01:27 36.13081 -114.99407 38926 ft 510 kts 70°
2026-04-20 01:27 36.15604 -114.91213 38928 ft 507 kts 70°
2026-04-20 01:28 36.18120 -114.83017 38938 ft 509 kts 70°
2026-04-20 01:28 36.20626 -114.74842 38933 ft 508 kts 70°
2026-04-20 01:29 36.23134 -114.66647 38964 ft 509 kts 70°
2026-04-20 01:29 36.25620 -114.58493 38960 ft 508 kts 70°
2026-04-20 01:30 36.28124 -114.50261 38975 ft 509 kts 70°
2026-04-20 01:30 36.30626 -114.42008 38979 ft 509 kts 70°
2026-04-20 01:31 36.33114 -114.33781 38992 ft 509 kts 71°
2026-04-20 01:31 36.35595 -114.25549 38990 ft 508 kts 71°
2026-04-20 01:32 36.38059 -114.17351 38995 ft 509 kts 71°
2026-04-20 01:32 36.40530 -114.09104 38997 ft 508 kts 71°
2026-04-20 01:33 36.42995 -114.00852 38999 ft 510 kts 71°
2026-04-20 01:33 36.45450 -113.92612 39039 ft 508 kts 71°
2026-04-20 01:34 36.47896 -113.84379 39060 ft 508 kts 71°
2026-04-20 01:34 36.50341 -113.76125 39095 ft 510 kts 71°
2026-04-20 01:35 36.52783 -113.67854 39118 ft 509 kts 71°
2026-04-20 01:35 36.55220 -113.59578 39132 ft 511 kts 71°
2026-04-20 01:36 36.57648 -113.51305 39138 ft 508 kts 71°
2026-04-20 01:36 36.60060 -113.43065 39157 ft 508 kts 71°
2026-04-20 01:37 36.62487 -113.34745 39164 ft 508 kts 71°
2026-04-20 01:37 36.64894 -113.26465 39148 ft 507 kts 71°
2026-04-20 01:38 36.67287 -113.18199 39166 ft 508 kts 71°
2026-04-20 01:38 36.69680 -113.09908 39174 ft 507 kts 71°
2026-04-20 01:39 36.72060 -113.01643 39198 ft 507 kts 71°
2026-04-20 01:39 36.74432 -112.93378 39171 ft 507 kts 71°
2026-04-20 01:40 36.76825 -112.85014 39149 ft 509 kts 71°
2026-04-20 01:40 36.79189 -112.76726 39171 ft 506 kts 71°
2026-04-20 01:41 36.81543 -112.68450 39196 ft 509 kts 71°
2026-04-20 01:41 36.83915 -112.60081 39203 ft 507 kts 71°
2026-04-20 01:42 36.86266 -112.51763 39199 ft 507 kts 71°
2026-04-20 01:42 36.88599 -112.43484 39198 ft 507 kts 71°
2026-04-20 01:43 36.90937 -112.35133 39214 ft 508 kts 71°
2026-04-20 01:43 36.93274 -112.26793 39196 ft 507 kts 72°
2026-04-20 01:44 36.95597 -112.18481 39193 ft 510 kts 72°
2026-04-20 01:44 36.97941 -112.10069 39189 ft 508 kts 72°
2026-04-20 01:45 37.00258 -112.01729 39197 ft 510 kts 72°
2026-04-20 01:45 37.02575 -111.93360 39196 ft 508 kts 72°
2026-04-20 01:46 37.04883 -111.85000 39198 ft 507 kts 72°
2026-04-20 01:46 37.07206 -111.76558 39193 ft 508 kts 72°
2026-04-20 01:47 37.09507 -111.68167 39216 ft 508 kts 72°
2026-04-20 01:47 37.11791 -111.59815 39189 ft 506 kts 72°
2026-04-20 01:48 37.14049 -111.51527 39200 ft 507 kts 72°
2026-04-20 01:48 37.16324 -111.43153 39183 ft 507 kts 72°
2026-04-20 01:49 37.18594 -111.34772 39193 ft 508 kts 72°
2026-04-20 01:49 37.20855 -111.26395 39190 ft 505 kts 72°
2026-04-20 01:50 37.23548 -111.18263 39187 ft 507 kts 64°
2026-04-20 01:50 37.26700 -111.10384 39198 ft 505 kts 64°
2026-04-20 01:51 37.29845 -111.02503 39197 ft 506 kts 64°
2026-04-20 01:51 37.32992 -110.94587 39200 ft 502 kts 64°
2026-04-20 01:52 37.36098 -110.86748 39208 ft 502 kts 64°
2026-04-20 01:52 37.39233 -110.78809 39192 ft 502 kts 64°
2026-04-20 01:53 37.42320 -110.70972 39182 ft 503 kts 64°
2026-04-20 01:53 37.45401 -110.63129 39184 ft 503 kts 63°
2026-04-20 01:54 37.48488 -110.55250 39201 ft 501 kts 64°
2026-04-20 01:54 37.51562 -110.47383 39240 ft 502 kts 64°
2026-04-20 01:55 37.54613 -110.39558 39231 ft 499 kts 63°
2026-04-20 01:55 37.57682 -110.31664 39219 ft 500 kts 64°
2026-04-20 01:56 37.60722 -110.23826 39209 ft 498 kts 64°
2026-04-20 01:56 37.63771 -110.15945 39238 ft 501 kts 64°
2026-04-20 01:57 37.66811 -110.08068 39266 ft 500 kts 64°
2026-04-20 01:57 37.69832 -110.00219 39280 ft 499 kts 64°
2026-04-20 01:58 37.72849 -109.92360 39286 ft 500 kts 64°
2026-04-20 01:58 37.75843 -109.84542 39273 ft 498 kts 64°
2026-04-20 01:59 37.78834 -109.76711 39250 ft 497 kts 64°
2026-04-20 01:59 37.81832 -109.68845 39273 ft 497 kts 64°
2026-04-20 02:00 37.84797 -109.61043 39267 ft 496 kts 64°
2026-04-20 02:00 37.87769 -109.53201 39272 ft 496 kts 64°
2026-04-20 02:01 37.90727 -109.45380 39287 ft 496 kts 64°
2026-04-20 02:01 37.93712 -109.37463 39272 ft 498 kts 64°
2026-04-20 02:02 37.96672 -109.29597 39282 ft 498 kts 64°
2026-04-20 02:02 37.99643 -109.21677 39273 ft 496 kts 64°
2026-04-20 02:03 38.02619 -109.13724 39291 ft 498 kts 64°
2026-04-20 02:03 38.05573 -109.05810 39293 ft 496 kts 64°
2026-04-20 02:04 38.08518 -108.97900 39278 ft 496 kts 64°
2026-04-20 02:04 38.11514 -108.89969 39279 ft 496 kts 63°
2026-04-20 02:05 38.14598 -108.82174 39303 ft 495 kts 63°
2026-04-20 02:05 38.17692 -108.74322 39304 ft 495 kts 62°
2026-04-20 02:06 38.20805 -108.66390 39337 ft 497 kts 63°
2026-04-20 02:06 38.23868 -108.58556 39332 ft 496 kts 62°
2026-04-20 02:07 38.26959 -108.50628 39385 ft 497 kts 62°
2026-04-20 02:07 38.30045 -108.42692 39360 ft 494 kts 62°
2026-04-20 02:08 38.33104 -108.34802 39395 ft 497 kts 63°
2026-04-20 02:08 38.36153 -108.26914 39370 ft 493 kts 63°
2026-04-20 02:09 38.39200 -108.19016 39380 ft 496 kts 63°
2026-04-20 02:09 38.42245 -108.11099 39373 ft 495 kts 62°
2026-04-20 02:10 38.45282 -108.03182 39357 ft 493 kts 62°
2026-04-20 02:10 38.48306 -107.95235 39303 ft 495 kts 63°
2026-04-20 02:11 38.51295 -107.87318 39284 ft 493 kts 63°
2026-04-20 02:11 38.54293 -107.79359 39349 ft 497 kts 63°
2026-04-20 02:12 38.57308 -107.71337 39395 ft 493 kts 63°
2026-04-20 02:12 38.60286 -107.63392 39466 ft 495 kts 62°
2026-04-20 02:13 38.63234 -107.55506 39481 ft 495 kts 62°
2026-04-20 02:13 38.65896 -107.48373 39489 ft 496 kts 62°
2026-04-20 02:14 38.68687 -107.41007 39477 ft 495 kts 62°
2026-04-20 02:14 38.71693 -107.33071 39474 ft 494 kts 62°
2026-04-20 02:15 38.73189 -107.29111 39353 ft 491 kts 62°
2026-04-20 02:15 38.74677 -107.25164 38472 ft 491 kts 62°
2026-04-20 02:15 38.76170 -107.21203 37533 ft 492 kts 62°
2026-04-20 02:15 38.77641 -107.17292 36743 ft 490 kts 62°
2026-04-20 02:16 38.79134 -107.13315 36013 ft 488 kts 62°
2026-04-20 02:16 38.80609 -107.09383 35345 ft 489 kts 62°
2026-04-20 02:16 38.82073 -107.05477 34530 ft 492 kts 62°
2026-04-20 02:16 38.83570 -107.01476 33649 ft 495 kts 62°
2026-04-20 02:17 38.85067 -106.97470 32732 ft 498 kts 62°
2026-04-20 02:17 38.86561 -106.93465 31808 ft 501 kts 62°
2026-04-20 02:17 38.88046 -106.89480 31027 ft 500 kts 62°
2026-04-20 02:17 38.89527 -106.85497 30550 ft 492 kts 62°
2026-04-20 02:18 38.90991 -106.81554 30026 ft 486 kts 62°
2026-04-20 02:18 38.92453 -106.77612 29463 ft 482 kts 61°
2026-04-20 02:18 38.93888 -106.73740 28886 ft 477 kts 61°
2026-04-20 02:18 38.95295 -106.69939 28310 ft 474 kts 62°
2026-04-20 02:19 38.96717 -106.66092 27738 ft 469 kts 62°
2026-04-20 02:19 38.98093 -106.62361 27480 ft 457 kts 62°
2026-04-20 02:19 38.99433 -106.58723 27457 ft 441 kts 61°
2026-04-20 02:19 39.00729 -106.55196 27317 ft 433 kts 61°
2026-04-20 02:20 39.02031 -106.51644 26887 ft 431 kts 62°
2026-04-20 02:20 39.03294 -106.48192 26512 ft 425 kts 61°
2026-04-20 02:20 39.04552 -106.44752 26177 ft 420 kts 61°
2026-04-20 02:20 39.05795 -106.41350 25853 ft 419 kts 62°
2026-04-20 02:21 39.08288 -106.34512 25197 ft 417 kts 62°
2026-04-20 02:21 39.09520 -106.31128 24863 ft 414 kts 62°
2026-04-20 02:21 39.10749 -106.27745 24538 ft 412 kts 62°
2026-04-20 02:22 39.11973 -106.24374 24219 ft 410 kts 62°
2026-04-20 02:22 39.13184 -106.21036 23902 ft 408 kts 62°
2026-04-20 02:22 39.14383 -106.17725 23591 ft 405 kts 62°
2026-04-20 02:22 39.15575 -106.14427 23285 ft 403 kts 62°
2026-04-20 02:23 39.16748 -106.11173 23026 ft 402 kts 62°
2026-04-20 02:23 39.17963 -106.07800 22766 ft 425 kts 62°
2026-04-20 02:23 39.19222 -106.04300 22473 ft 428 kts 62°
2026-04-20 02:23 39.20482 -106.00787 22184 ft 427 kts 63°
2026-04-20 02:24 39.21735 -105.97286 21901 ft 425 kts 63°
2026-04-20 02:24 39.22974 -105.93825 21613 ft 423 kts 62°
2026-04-20 02:24 39.24201 -105.90395 21331 ft 422 kts 63°
2026-04-20 02:24 39.25447 -105.86937 21045 ft 420 kts 63°
2026-04-20 02:25 39.26671 -105.83542 20765 ft 418 kts 62°
2026-04-20 02:25 39.27894 -105.80145 20485 ft 409 kts 62°
2026-04-20 02:25 39.29075 -105.76858 20214 ft 399 kts 62°
2026-04-20 02:25 39.30238 -105.73619 19949 ft 390 kts 63°
2026-04-20 02:26 39.31366 -105.70475 19691 ft 381 kts 62°
2026-04-20 02:26 39.32460 -105.67419 19438 ft 373 kts 62°
2026-04-20 02:26 39.33559 -105.64394 19196 ft 366 kts 62°
2026-04-20 02:26 39.34651 -105.61414 18963 ft 367 kts 62°
2026-04-20 02:27 39.35737 -105.58446 18720 ft 365 kts 62°
2026-04-20 02:27 39.36821 -105.55477 18485 ft 363 kts 62°
2026-04-20 02:27 39.37896 -105.52531 18253 ft 363 kts 63°
2026-04-20 02:27 39.38979 -105.49554 18006 ft 359 kts 63°
2026-04-20 02:28 39.40033 -105.46656 17762 ft 351 kts 62°
2026-04-20 02:28 39.41047 -105.43807 17522 ft 343 kts 67°
2026-04-20 02:28 39.41559 -105.40823 17256 ft 338 kts 83°
2026-04-20 02:28 39.41678 -105.37831 16948 ft 335 kts 87°
2026-04-20 02:29 39.41717 -105.34803 16669 ft 332 kts 89°
2026-04-20 02:29 39.41738 -105.31839 16408 ft 332 kts 89°
2026-04-20 02:29 39.41756 -105.28848 16142 ft 331 kts 89°
2026-04-20 02:29 39.41772 -105.25865 15877 ft 329 kts 89°
2026-04-20 02:30 39.41787 -105.22923 15630 ft 327 kts 89°
2026-04-20 02:30 39.41801 -105.19971 15383 ft 325 kts 89°
2026-04-20 02:30 39.41815 -105.17066 15119 ft 324 kts 89°
2026-04-20 02:30 39.41827 -105.14154 14859 ft 319 kts 89°
2026-04-20 02:31 39.41839 -105.11289 14608 ft 313 kts 89°
2026-04-20 02:31 39.41850 -105.08492 14364 ft 307 kts 89°
2026-04-20 02:31 39.41860 -105.05762 14116 ft 301 kts 89°
2026-04-20 02:31 39.41869 -105.03062 13880 ft 296 kts 88°
2026-04-20 02:32 39.41877 -105.00444 13649 ft 290 kts 88°
2026-04-20 02:32 39.41885 -104.97864 13432 ft 285 kts 88°
2026-04-20 02:32 39.41893 -104.95311 13215 ft 280 kts 88°
2026-04-20 02:32 39.42022 -104.92859 12986 ft 275 kts 82°
2026-04-20 02:33 39.42240 -104.90394 12699 ft 273 kts 82°
2026-04-20 02:33 39.42460 -104.87972 12406 ft 271 kts 82°
2026-04-20 02:33 39.42674 -104.85566 12135 ft 268 kts 82°
2026-04-20 02:33 39.42887 -104.83178 11870 ft 266 kts 82°
2026-04-20 02:34 39.43094 -104.80840 11613 ft 263 kts 82°
2026-04-20 02:34 39.43301 -104.78507 11357 ft 260 kts 82°
2026-04-20 02:34 39.43574 -104.76204 11124 ft 254 kts 71°
2026-04-20 02:34 39.44155 -104.74101 11094 ft 247 kts 66°
2026-04-20 02:35 39.44977 -104.72166 11074 ft 244 kts 44°
2026-04-20 02:35 39.46347 -104.70858 11090 ft 243 kts 27°
2026-04-20 02:35 39.47860 -104.69839 11086 ft 243 kts 25°
2026-04-20 02:35 39.49474 -104.69205 11080 ft 242 kts
2026-04-20 02:36 39.51186 -104.69109 10987 ft 246 kts
2026-04-20 02:36 39.52891 -104.69099 10776 ft 242 kts 359°
2026-04-20 02:36 39.54560 -104.69103 10641 ft 238 kts 360°
2026-04-20 02:36 39.56254 -104.69094 10388 ft 242 kts
2026-04-20 02:37 39.57936 -104.69064 10193 ft 238 kts
2026-04-20 02:37 39.59652 -104.69031 9921 ft 249 kts
2026-04-20 02:37 39.61309 -104.69031 9764 ft 226 kts
2026-04-20 02:37 39.62801 -104.69023 9728 ft 204 kts
2026-04-20 02:38 39.64161 -104.69004 9686 ft 181 kts
2026-04-20 02:38 39.65390 -104.68996 9470 ft 172 kts
2026-04-20 02:38 39.66565 -104.68965 9207 ft 165 kts
2026-04-20 02:38 39.67719 -104.68936 8918 ft 164 kts
2026-04-20 02:39 39.68863 -104.68922 8658 ft 164 kts
2026-04-20 02:39 39.70025 -104.68916 8410 ft 167 kts
2026-04-20 02:39 39.71182 -104.68903 8203 ft 167 kts
2026-04-20 02:39 39.72348 -104.68884 8002 ft 167 kts
2026-04-20 02:40 39.73514 -104.68881 7796 ft 167 kts
2026-04-20 02:40 39.74696 -104.68858 7597 ft 167 kts
2026-04-20 02:40 39.75854 -104.68833 7382 ft 168 kts
2026-04-20 02:40 39.77039 -104.68817 7157 ft 170 kts
2026-04-20 02:41 39.78246 -104.68818 6925 ft 170 kts
2026-04-20 02:41 39.79422 -104.68818 6691 ft 170 kts
2026-04-20 02:41 39.80605 -104.68786 6445 ft 170 kts
2026-04-20 02:41 39.81795 -104.68772 6208 ft 170 kts
2026-04-20 02:42 39.82972 -104.68755 5997 ft 168 kts
2026-04-20 02:42 39.84150 -104.68750 5782 ft 168 kts
2026-04-20 02:42 39.85331 -104.68732 5563 ft 167 kts
2026-04-20 02:42 39.86499 -104.68720 5350 ft 167 kts
2026-04-20 02:43 39.87554 -104.68710 5344 ft 130 kts
2026-04-20 02:43 39.88311 -104.68698 5358 ft 85 kts
2026-04-20 02:43 39.88754 -104.68692 5376 ft 41 kts
2026-04-20 02:43 39.88979 -104.68690 5370 ft 31 kts
2026-04-20 02:44 39.89182 -104.68688 5359 ft 19 kts 360°
2026-04-20 02:44 39.89270 -104.68672 5354 ft 10 kts 40°
2026-04-20 02:44 39.89293 -104.68594 5355 ft 9 kts 86°
2026-04-20 02:44 39.89288 -104.68514 5357 ft 7 kts 114°
2026-04-20 02:45 39.89261 -104.68480 5360 ft 4 kts 161°
2026-04-20 02:45 39.89219 -104.68475 5363 ft 7 kts 178°
2026-04-20 02:45 39.89128 -104.68475 5369 ft 18 kts 180°
2026-04-20 02:45 39.88985 -104.68478 5377 ft 21 kts 180°
2026-04-20 02:46 39.88840 -104.68479 5383 ft 18 kts 180°
2026-04-20 02:46 39.88720 -104.68481 5384 ft 16 kts 180°
2026-04-20 02:46 39.88607 -104.68482 5382 ft 16 kts 180°
2026-04-20 02:46 39.88486 -104.68483 5377 ft 18 kts 180°
2026-04-20 02:47 39.88348 -104.68484 5369 ft 21 kts 181°
2026-04-20 02:47 39.88192 -104.68488 5360 ft 23 kts 179°
2026-04-20 02:47 39.88023 -104.68487 5350 ft 25 kts 180°
2026-04-20 02:47 39.87845 -104.68490 5346 ft 25 kts 180°
2026-04-20 02:48 39.87677 -104.68491 5349 ft 22 kts 180°
2026-04-20 02:48 39.87539 -104.68494 5354 ft 18 kts 180°
2026-04-20 02:48 39.87407 -104.68495 5359 ft 19 kts 180°
2026-04-20 02:48 39.87267 -104.68497 5363 ft 19 kts 180°
2026-04-20 02:49 39.87138 -104.68498 5363 ft 18 kts 180°
2026-04-20 02:49 39.86999 -104.68500 5358 ft 21 kts 180°
2026-04-20 02:49 39.86846 -104.68503 5352 ft 22 kts 180°
2026-04-20 02:49 39.86678 -104.68503 5340 ft 26 kts 180°
2026-04-20 02:50 39.86490 -104.68506 5333 ft 27 kts 181°
2026-04-20 02:50 39.86300 -104.68508 5329 ft 26 kts 179°
2026-04-20 02:50 39.86122 -104.68510 5331 ft 23 kts 180°
2026-04-20 02:50 39.85972 -104.68512 5336 ft 19 kts 180°
2026-04-20 02:51 39.85842 -104.68514 5336 ft 17 kts 181°
2026-04-20 02:51 39.85728 -104.68512 5334 ft 14 kts 167°
2026-04-20 02:51 39.85687 -104.68433 5339 ft 8 kts 91°
2026-04-20 02:51 39.85686 -104.68353 5345 ft 12 kts 90°
2026-04-20 02:52 39.85710 -104.68211 5353 ft 17 kts 51°
2026-04-20 02:52 39.85735 -104.68104 5362 ft 8 kts 90°
2026-04-20 02:52 39.85734 -104.68014 5367 ft 14 kts 88°
2026-04-20 02:52 39.85735 -104.67828 5379 ft 25 kts 90°
2026-04-20 02:53 39.85733 -104.67600 5394 ft 19 kts 90°
2026-04-20 02:53 39.85747 -104.67550 5398 ft 2 kts 33°
2026-04-20 02:53 39.85757 -104.67545 5398 ft 1 kts 11°
2026-04-20 02:53 39.85774 -104.67545 5398 ft 4 kts
2026-04-20 02:54 39.85782 -104.67545 5399 ft 0 kts
2026-04-20 02:54 39.85795 -104.67545 5399 ft 3 kts
2026-04-20 02:54 39.85804 -104.67545 5399 ft 0 kts